Back to catalog

SL-12 R/B(2)

AliveGEO
NORAD 22272·ROCKET BODY·🇷🇺 Russia

Launched Dec 17, 1992 from Baikonur Cosmodrome

Loading…

TLE

FreshSource: Space-Track

Epoch: Sep 14, 2026, 12:25 UTC

1 22272U 92088D   26257.51788566  .00000090  00000-0  00000-0 0  9999
2 22272  13.7092 347.7900 0009264 175.1029 219.7871  1.00065163 48183

Track SL-12 R/B(2) in real time with AllMySat

Download on the App Store